| time (UTC) | temp F | wind direction | speed MPH | gust MPH | rain 1hr in | rain 24hr in | rain mn in | humidity % | barometer mb |
| 20260904135511 | 78 | 55 | 2.0 | 5.0 | 0.00 | 0.00 | 0.00 | 71 | 1016.1 |
| 20260904135005 | 78 | 60 | 2.0 | 5.0 | 0.00 | 0.00 | 0.00 | 72 | 1016.1 |
| 20260904134536 | 77 | 4 | 1.0 | 4.0 | 0.00 | 0.00 | 0.00 | 73 | 1016.0 |
| 20260904134015 | 77 | 4 | 0.0 | 4.0 | 0.00 | 0.00 | 0.00 | 73 | 1015.9 |
| 20260904133504 | 77 | 4 | 1.0 | 3.0 | 0.00 | 0.00 | 0.00 | 73 | 1015.8 |
| 20260904133027 | 77 | 7 | 0.0 | 3.0 | 0.00 | 0.00 | 0.00 | 73 | 1015.7 |
| 20260904132510 | 77 | 9 | 0.0 | 4.0 | 0.00 | 0.00 | 0.00 | 72 | 1015.7 |
| 20260904132005 | 77 | 360 | 1.0 | 4.0 | 0.00 | 0.00 | 0.00 | 72 | 1015.6 |
| 20260904131532 | 77 | 360 | 1.0 | 3.0 | 0.00 | 0.00 | 0.00 | 72 | 1015.5 |
| 20260904131019 | 78 | 360 | 0.0 | 3.0 | 0.00 | 0.00 | 0.00 | 71 | 1015.4 |
| 20260904130509 | 78 | 360 | 0.0 | 3.0 | 0.00 | 0.00 | 0.00 | 71 | 1015.3 |
| 20260904130037 | 78 | 360 | 1.0 | 3.0 | 0.00 | 0.00 | 0.00 | 71 | 1015.2 |
| 20260904125512 | 78 | 360 | 1.0 | 3.0 | 0.00 | 0.00 | 0.00 | 71 | 1015.2 |
| 20260904125006 | 78 | 360 | 0.0 | 3.0 | 0.00 | 0.00 | 0.00 | 70 | 1015.1 |
| 20260904124528 | 78 | 360 | 0.0 | 2.0 | 0.00 | 0.00 | 0.00 | 70 | 1015.1 |
| 20260904124012 | 78 | 360 | 0.0 | 3.0 | 0.00 | 0.00 | 0.00 | 70 | 1015.0 |
| 20260904123508 | 78 | 11 | 0.0 | 3.0 | 0.00 | 0.00 | 0.00 | 69 | 1014.9 |
| 20260904123030 | 78 | 360 | 0.0 | 3.0 | 0.00 | 0.00 | 0.00 | 69 | 1014.8 |
| 20260904122508 | 78 | 360 | 0.0 | 2.0 | 0.00 | 0.00 | 0.00 | 69 | 1014.8 |
| 20260904122006 | 79 | 360 | 0.0 | 2.0 | 0.00 | 0.00 | 0.00 | 69 | 1014.6 |
| 20260904121532 | 79 | 360 | 0.0 | 1.0 | 0.00 | 0.00 | 0.00 | 69 | 1014.6 |
| 20260904121012 | 79 | 360 | 0.0 | 5.0 | 0.00 | 0.00 | 0.00 | 69 | 1014.7 |
| 20260904120506 | 79 | 11 | 1.0 | 5.0 | 0.00 | 0.00 | 0.00 | 69 | 1014.7 |
| 20260904120037 | 79 | 360 | 0.0 | 2.0 | 0.00 | 0.00 | 0.00 | 69 | 1014.7 |
| 20260904115509 | 79 | 360 | 0.0 | 4.0 | 0.00 | 0.00 | 0.00 | 68 | 1014.7 |
| 20260904115004 | 79 | 360 | 0.0 | 4.0 | 0.00 | 0.00 | 0.00 | 68 | 1014.6 |
| 20260904114531 | 79 | 11 | 2.0 | 7.0 | 0.00 | 0.00 | 0.00 | 68 | 1014.7 |
| 20260904114012 | 80 | 360 | 0.0 | 7.0 | 0.00 | 0.00 | 0.00 | 67 | 1014.7 |
| 20260904113506 | 80 | 360 | 2.0 | 5.0 | 0.00 | 0.00 | 0.00 | 67 | 1014.6 |
| 20260904113033 | 80 | 360 | 1.0 | 5.0 | 0.00 | 0.00 | 0.00 | 66 | 1014.6 |
| 20260904112507 | 80 | 360 | 1.0 | 6.0 | 0.00 | 0.00 | 0.00 | 66 | 1014.5 |
| 20260904112005 | 80 | 9 | 1.0 | 6.0 | 0.00 | 0.00 | 0.00 | 66 | 1014.4 |
| 20260904111540 | 80 | 360 | 1.0 | 5.0 | 0.00 | 0.00 | 0.00 | 66 | 1014.5 |
| 20260904111012 | 80 | 360 | 1.0 | 5.0 | 0.00 | 0.00 | 0.00 | 66 | 1014.5 |
| 20260904110504 | 80 | 11 | 1.0 | 6.0 | 0.00 | 0.00 | 0.00 | 65 | 1014.5 |
| 20260904110031 | 80 | 8 | 2.0 | 6.0 | 0.00 | 0.00 | 0.00 | 65 | 1014.5 |
| 20260904105510 | 80 | 8 | 2.0 | 6.0 | 0.00 | 0.00 | 0.00 | 66 | 1014.5 |
| 20260904105005 | 80 | 8 | 1.0 | 6.0 | 0.00 | 0.00 | 0.00 | 66 | 1014.5 |
| 20260904104530 | 80 | 6 | 1.0 | 5.0 | 0.00 | 0.00 | 0.00 | 66 | 1014.4 |
| 20260904104008 | 80 | 6 | 2.0 | 5.0 | 0.00 | 0.00 | 0.00 | 66 | 1014.5 |
| 20260904103504 | 80 | 9 | 0.0 | 4.0 | 0.00 | 0.00 | 0.00 | 66 | 1014.5 |
| 20260904103041 | 80 | 8 | 1.0 | 4.0 | 0.00 | 0.00 | 0.00 | 66 | 1014.5 |
| 20260904102510 | 80 | 8 | 1.0 | 5.0 | 0.00 | 0.00 | 0.00 | 66 | 1014.5 |
| 20260904102019 | 80 | 11 | 1.0 | 6.0 | 0.00 | 0.00 | 0.00 | 66 | 1014.5 |
| 20260904101529 | 80 | 6 | 2.0 | 6.0 | 0.00 | 0.00 | 0.00 | 66 | 1014.5 |
| 20260904101009 | 80 | 10 | 1.0 | 6.0 | 0.00 | 0.00 | 0.00 | 66 | 1014.4 |
| 20260904100518 | 80 | 8 | 2.0 | 6.0 | 0.00 | 0.00 | 0.00 | 66 | 1014.5 |
| 20260904100031 | 80 | 6 | 1.0 | 6.0 | 0.00 | 0.00 | 0.00 | 66 | 1014.4 |
| 20260904095513 | 80 | 6 | 1.0 | 9.0 | 0.00 | 0.00 | 0.00 | 66 | 1014.4 |
| 20260904095006 | 80 | 6 | 4.0 | 9.0 | 0.00 | 0.00 | 0.00 | 66 | 1014.3 |
| 20260904094530 | 80 | 9 | 1.0 | 6.0 | 0.00 | 0.00 | 0.00 | 66 | 1014.2 |
| 20260904094007 | 81 | 9 | 0.0 | 7.0 | 0.00 | 0.00 | 0.00 | 66 | 1014.2 |
| 20260904093504 | 81 | 8 | 1.0 | 8.0 | 0.00 | 0.00 | 0.00 | 66 | 1014.2 |
| 20260904093028 | 81 | 8 | 2.0 | 8.0 | 0.00 | 0.00 | 0.00 | 65 | 1014.2 |
| 20260904092508 | 80 | 7 | 2.0 | 8.0 | 0.00 | 0.00 | 0.00 | 66 | 1014.2 |
| 20260904092004 | 80 | 8 | 1.0 | 8.0 | 0.00 | 0.00 | 0.00 | 66 | 1014.2 |
| 20260904091530 | 80 | 8 | 2.0 | 7.0 | 0.00 | 0.00 | 0.00 | 66 | 1014.1 |
| 20260904091015 | 80 | 8 | 2.0 | 7.0 | 0.00 | 0.00 | 0.00 | 66 | 1014.2 |
| 20260904090503 | 80 | 8 | 0.0 | 4.0 | 0.00 | 0.00 | 0.00 | 66 | 1014.3 |
| 20260904090030 | 80 | 8 | 0.0 | 5.0 | 0.00 | 0.00 | 0.00 | 66 | 1014.3 |
| 20260904085511 | 80 | 360 | 2.0 | 5.0 | 0.00 | 0.00 | 0.00 | 66 | 1014.2 |
| 20260904085006 | 80 | 11 | 1.0 | 6.0 | 0.00 | 0.00 | 0.00 | 66 | 1014.2 |
| 20260904084530 | 80 | 10 | 0.0 | 6.0 | 0.00 | 0.00 | 0.00 | 66 | 1014.2 |
| 20260904084012 | 80 | 11 | 1.0 | 5.0 | 0.00 | 0.00 | 0.00 | 66 | 1014.2 |
| 20260904083504 | 80 | 360 | 0.0 | 5.0 | 0.00 | 0.00 | 0.00 | 66 | 1014.2 |
| 20260904083047 | 80 | 360 | 0.0 | 5.0 | 0.00 | 0.00 | 0.00 | 66 | 1014.3 |
| 20260904082512 | 80 | 360 | 2.0 | 4.0 | 0.00 | 0.00 | 0.00 | 66 | 1014.3 |
| 20260904082005 | 80 | 360 | 0.0 | 4.0 | 0.00 | 0.00 | 0.00 | 66 | 1014.4 |
| 20260904081531 | 81 | 360 | 1.0 | 4.0 | 0.00 | 0.00 | 0.00 | 66 | 1014.4 |
| 20260904081010 | 81 | 360 | 0.0 | 4.0 | 0.00 | 0.00 | 0.00 | 66 | 1014.4 |
| 20260904080505 | 81 | 360 | 0.0 | 5.0 | 0.00 | 0.00 | 0.00 | 65 | 1014.4 |
| 20260904080029 | 81 | 360 | 0.0 | 5.0 | 0.00 | 0.00 | 0.00 | 65 | 1014.4 |
| 20260904075508 | 81 | 13 | 1.0 | 5.0 | 0.00 | 0.00 | 0.00 | 65 | 1014.4 |
| 20260904075005 | 81 | 11 | 1.0 | 5.0 | 0.00 | 0.00 | 0.00 | 65 | 1014.4 |
| 20260904074545 | 81 | 7 | 0.0 | 5.0 | 0.00 | 0.00 | 0.00 | 65 | 1014.4 |
| 20260904074011 | 81 | 360 | 2.0 | 6.0 | 0.00 | 0.00 | 0.00 | 65 | 1014.4 |
| 20260904073506 | 81 | 8 | 2.0 | 6.0 | 0.00 | 0.00 | 0.00 | 65 | 1014.4 |
| 20260904073035 | 81 | 360 | 2.0 | 5.0 | 0.00 | 0.00 | 0.00 | 65 | 1014.4 |
| 20260904072510 | 81 | 360 | 1.0 | 5.0 | 0.00 | 0.00 | 0.00 | 64 | 1014.5 |
| 20260904072006 | 81 | 11 | 0.0 | 8.0 | 0.00 | 0.00 | 0.00 | 64 | 1014.6 |
| 20260904071531 | 81 | 360 | 2.0 | 8.0 | 0.00 | 0.00 | 0.00 | 64 | 1014.6 |
| 20260904071018 | 81 | 9 | 1.0 | 5.0 | 0.00 | 0.00 | 0.00 | 64 | 1014.6 |
| 20260904070506 | 81 | 360 | 0.0 | 5.0 | 0.00 | 0.00 | 0.00 | 63 | 1014.6 |
| 20260904070029 | 81 | 8 | 1.0 | 6.0 | 0.00 | 0.00 | 0.00 | 63 | 1014.6 |
| 20260904065508 | 82 | 11 | 1.0 | 6.0 | 0.00 | 0.00 | 0.00 | 63 | 1014.5 |
| 20260904065004 | 82 | 8 | 1.0 | 5.0 | 0.00 | 0.00 | 0.00 | 63 | 1014.5 |
| 20260904064535 | 82 | 10 | 2.0 | 5.0 | 0.00 | 0.00 | 0.00 | 62 | 1014.6 |
| 20260904064008 | 82 | 360 | 1.0 | 5.0 | 0.00 | 0.00 | 0.00 | 62 | 1014.6 |
| 20260904063504 | 82 | 10 | 1.0 | 5.0 | 0.00 | 0.00 | 0.00 | 62 | 1014.6 |
| 20260904063028 | 82 | 360 | 1.0 | 5.0 | 0.00 | 0.00 | 0.00 | 62 | 1014.6 |
| 20260904062511 | 82 | 10 | 1.0 | 5.0 | 0.00 | 0.00 | 0.00 | 62 | 1014.5 |
| 20260904062006 | 82 | 360 | 1.0 | 5.0 | 0.00 | 0.00 | 0.00 | 62 | 1014.5 |
| 20260904061539 | 82 | 11 | 1.0 | 5.0 | 0.00 | 0.00 | 0.00 | 62 | 1014.5 |
| 20260904061010 | 82 | 360 | 1.0 | 5.0 | 0.00 | 0.00 | 0.00 | 61 | 1014.5 |
| 20260904060506 | 82 | 360 | 0.0 | 5.0 | 0.00 | 0.00 | 0.00 | 61 | 1014.5 |
| 20260904060030 | 82 | 360 | 0.0 | 6.0 | 0.00 | 0.00 | 0.00 | 60 | 1014.4 |
| 20260904055508 | 82 | 11 | 1.0 | 7.0 | 0.00 | 0.00 | 0.00 | 60 | 1014.4 |
| 20260904055004 | 82 | 360 | 2.0 | 7.0 | 0.00 | 0.00 | 0.00 | 60 | 1014.4 |
| 20260904054535 | 83 | 360 | 1.0 | 9.0 | 0.00 | 0.00 | 0.00 | 60 | 1014.3 |
| 20260904054010 | 83 | 8 | 1.0 | 9.0 | 0.00 | 0.00 | 0.00 | 60 | 1014.3 |
| 20260904053507 | 82 | 360 | 2.0 | 6.0 | 0.00 | 0.00 | 0.00 | 61 | 1014.3 |
| 20260904053033 | 83 | 8 | 1.0 | 5.0 | 0.00 | 0.00 | 0.00 | 61 | 1014.2 |
| 20260904052513 | 83 | 9 | 1.0 | 8.0 | 0.00 | 0.00 | 0.00 | 60 | 1014.3 |
| 20260904052010 | 83 | 8 | 3.0 | 8.0 | 0.00 | 0.00 | 0.00 | 60 | 1014.3 |
| 20260904051530 | 83 | 10 | 3.0 | 8.0 | 0.00 | 0.00 | 0.00 | 60 | 1014.3 |
| 20260904051009 | 83 | 360 | 0.0 | 7.0 | 0.00 | 0.00 | 0.00 | 61 | 1014.3 |
| 20260904050517 | 83 | 360 | 1.0 | 7.0 | 0.00 | 0.00 | 0.00 | 60 | 1014.3 |
| 20260904050028 | 83 | 360 | 2.0 | 7.0 | 0.00 | 0.00 | 0.00 | 60 | 1014.4 |
| 20260904045510 | 83 | 360 | 1.0 | 5.0 | 0.00 | 0.00 | 0.00 | 58 | 1014.4 |
| 20260904045021 | 84 | 360 | 1.0 | 8.0 | 0.00 | 0.00 | 0.00 | 58 | 1014.4 |
| 20260904044529 | 84 | 360 | 1.0 | 8.0 | 0.00 | 0.00 | 0.00 | 58 | 1014.4 |
| 20260904044009 | 84 | 360 | 0.0 | 5.0 | 0.00 | 0.00 | 0.00 | 58 | 1014.4 |
| 20260904043520 | 84 | 10 | 1.0 | 5.0 | 0.00 | 0.00 | 0.00 | 58 | 1014.5 |
| 20260904043029 | 84 | 11 | 0.0 | 6.0 | 0.00 | 0.00 | 0.00 | 58 | 1014.6 |
| 20260904042510 | 84 | 13 | 0.0 | 6.0 | 0.00 | 0.00 | 0.00 | 58 | 1014.6 |
| 20260904042016 | 84 | 9 | 3.0 | 7.0 | 0.00 | 0.00 | 0.00 | 58 | 1014.4 |
| 20260904041535 | 84 | 10 | 3.0 | 7.0 | 0.00 | 0.00 | 0.00 | 58 | 1014.5 |
| 20260904041013 | 84 | 11 | 2.0 | 8.0 | 0.00 | 0.00 | 0.00 | 58 | 1014.5 |
| 20260904040514 | 84 | 9 | 3.0 | 8.0 | 0.00 | 0.00 | 0.00 | 59 | 1014.5 |
| 20260904040028 | 84 | 360 | 1.0 | 6.0 | 0.00 | 0.00 | 0.00 | 59 | 1014.5 |
| 20260904035512 | 84 | 360 | 2.0 | 8.0 | 0.00 | 0.00 | 0.00 | 58 | 1014.4 |
| 20260904035018 | 84 | 8 | 2.0 | 8.0 | 0.00 | 0.00 | 0.00 | 59 | 1014.2 |
| 20260904034531 | 84 | 360 | 3.0 | 9.0 | 0.00 | 0.00 | 0.00 | 58 | 1014.1 |
| 20260904034010 | 84 | 360 | 4.0 | 9.0 | 0.00 | 0.00 | 0.00 | 58 | 1014.0 |
| 20260904033519 | 84 | 360 | 3.0 | 8.0 | 0.00 | 0.00 | 0.00 | 59 | 1014.1 |
| 20260904033027 | 84 | 360 | 1.0 | 8.0 | 0.00 | 0.00 | 0.00 | 58 | 1014.0 |
| 20260904032509 | 84 | 360 | 3.0 | 10.0 | 0.00 | 0.00 | 0.00 | 58 | 1014.0 |
| 20260904032017 | 84 | 10 | 2.0 | 10.0 | 0.00 | 0.00 | 0.00 | 59 | 1013.9 |
| 20260904031528 | 84 | 10 | 1.0 | 9.0 | 0.00 | 0.00 | 0.00 | 59 | 1013.8 |
| 20260904031020 | 84 | 11 | 2.0 | 9.0 | 0.00 | 0.00 | 0.00 | 58 | 1013.8 |
| 20260904030514 | 84 | 360 | 3.0 | 9.0 | 0.00 | 0.00 | 0.00 | 59 | 1013.6 |
| 20260904030028 | 84 | 11 | 3.0 | 9.0 | 0.00 | 0.00 | 0.00 | 59 | 1013.5 |
| 20260904025519 | 84 | 11 | 3.0 | 8.0 | 0.00 | 0.00 | 0.00 | 59 | 1013.5 |
| 20260904025016 | 84 | 6 | 2.0 | 8.0 | 0.00 | 0.00 | 0.00 | 59 | 1013.4 |
| 20260904024530 | 84 | 360 | 3.0 | 7.0 | 0.00 | 0.00 | 0.00 | 59 | 1013.3 |
| 20260904024012 | 84 | 360 | 2.0 | 7.0 | 0.00 | 0.00 | 0.00 | 59 | 1013.2 |
| 20260904023516 | 84 | 11 | 2.0 | 8.0 | 0.00 | 0.00 | 0.00 | 59 | 1013.2 |
| 20260904023030 | 84 | 360 | 3.0 | 8.0 | 0.00 | 0.00 | 0.00 | 58 | 1013.1 |
| 20260904022508 | 85 | 360 | 3.0 | 7.0 | 0.00 | 0.00 | 0.00 | 58 | 1013.2 |
| 20260904022016 | 85 | 360 | 0.0 | 4.0 | 0.00 | 0.00 | 0.00 | 58 | 1013.2 |
| 20260904021536 | 85 | 360 | 0.0 | 4.0 | 0.00 | 0.00 | 0.00 | 57 | 1013.1 |
| 20260904021010 | 85 | 360 | 0.0 | 3.0 | 0.00 | 0.00 | 0.00 | 57 | 1013.0 |
| 20260904020520 | 85 | 360 | 0.0 | 4.0 | 0.00 | 0.00 | 0.00 | 56 | 1013.0 |
| 20260904020027 | 85 | 12 | 0.0 | 5.0 | 0.00 | 0.00 | 0.00 | 56 | 1012.9 |
| 20260904015508 | 85 | 11 | 0.0 | 5.0 | 0.00 | 0.00 | 0.00 | 56 | 1012.8 |
| 20260904015020 | 85 | 360 | 0.0 | 6.0 | 0.00 | 0.00 | 0.00 | 56 | 1012.7 |
| 20260904014533 | 86 | 4 | 2.0 | 6.0 | 0.00 | 0.00 | 0.00 | 55 | 1012.5 |
| 20260904014008 | 86 | 6 | 2.0 | 8.0 | 0.00 | 0.00 | 0.00 | 54 | 1012.5 |
| 20260904013515 | 87 | 4 | 2.0 | 8.0 | 0.00 | 0.00 | 0.00 | 52 | 1012.5 |
| 20260904013032 | 88 | 4 | 1.0 | 8.0 | 0.00 | 0.00 | 0.00 | 51 | 1012.4 |
| 20260904012508 | 88 | 6 | 1.0 | 7.0 | 0.00 | 0.00 | 0.00 | 50 | 1012.5 |
| 20260904012021 | 88 | 6 | 1.0 | 8.0 | 0.00 | 0.00 | 0.00 | 49 | 1012.3 |
| 20260904011534 | 88 | 143 | 2.0 | 8.0 | 0.00 | 0.00 | 0.00 | 49 | 1012.2 |
| 20260904011018 | 89 | 143 | 2.0 | 7.0 | 0.00 | 0.00 | 0.00 | 49 | 1012.2 |
| 20260904010516 | 89 | 118 | 2.0 | 6.0 | 0.00 | 0.00 | 0.00 | 49 | 1012.2 |
| 20260904010034 | 89 | 136 | 1.0 | 6.0 | 0.00 | 0.00 | 0.00 | 51 | 1012.1 |
| 20260904005515 | 89 | 143 | 0.0 | 5.0 | 0.00 | 0.00 | 0.00 | 52 | 1012.2 |
| 20260904005003 | 88 | 124 | 0.0 | 5.0 | 0.00 | 0.00 | 0.00 | 56 | 1012.2 |
| 20260904004504 | 87 | 105 | 0.0 | 6.0 | 0.00 | 0.00 | 0.00 | 58 | 1012.3 |
| 20260904004008 | 87 | 70 | 0.0 | 6.0 | 0.00 | 0.00 | 0.00 | 59 | 1012.4 |
| 20260904003507 | 86 | 106 | 1.0 | 5.0 | 0.00 | 0.00 | 0.00 | 61 | 1012.4 |
| 20260904003004 | 86 | 40 | 0.0 | 3.0 | 0.00 | 0.00 | 0.00 | 69 | 1012.4 |
| 20260904002518 | 85 | 37 | 0.0 | 3.0 | 0.00 | 0.00 | 0.00 | 70 | 1012.3 |
| 20260904002019 | 85 | 37 | 0.0 | 3.0 | 0.00 | 0.00 | 0.00 | 67 | 1012.2 |
| 20260904001536 | 85 | 37 | 0.0 | 3.0 | 0.00 | 0.00 | 0.00 | 67 | 1012.2 |
| 20260904001007 | 85 | 38 | 0.0 | 3.0 | 0.00 | 0.00 | 0.00 | 66 | 1012.2 |
| 20260904000503 | 85 | 40 | 0.0 | 2.0 | 0.00 | 0.00 | 0.00 | 65 | 1012.3 |
| 20260904000010 | 84 | 41 | 0.0 | 5.0 | 0.00 | 0.00 | 0.00 | 67 | 1012.3 |
| 20260903235518 | 83 | 41 | 0.0 | 5.0 | 0.00 | 0.00 | 0.00 | 69 | 1012.2 |
| 20260903235003 | 83 | 51 | 2.0 | 5.0 | 0.00 | 0.00 | 0.00 | 69 | 1012.3 |
| 20260903234505 | 84 | 71 | 2.0 | 6.0 | 0.00 | 0.00 | 0.00 | 67 | 1012.4 |
| 20260903234010 | 85 | 85 | 0.0 | 7.0 | 0.00 | 0.00 | 0.00 | 64 | 1012.4 |
| 20260903233506 | 86 | 76 | 3.0 | 7.0 | 0.00 | 0.00 | 0.00 | 59 | 1012.4 |
| 20260903233004 | 87 | 115 | 3.0 | 7.0 | 0.00 | 0.00 | 0.00 | 56 | 1012.4 |
| 20260903232510 | 88 | 4 | 2.0 | 7.0 | 0.00 | 0.00 | 0.00 | 54 | 1012.5 |
| 20260903232005 | 90 | 113 | 2.0 | 6.0 | 0.00 | 0.00 | 0.00 | 49 | 1012.5 |
| 20260903231504 | 90 | 117 | 2.0 | 6.0 | 0.00 | 0.00 | 0.00 | 48 | 1012.4 |
| 20260903231010 | 92 | 223 | 0.0 | 6.0 | 0.00 | 0.00 | 0.00 | 45 | 1012.4 |
| 20260903230504 | 92 | 223 | 1.0 | 6.0 | 0.00 | 0.00 | 0.00 | 44 | 1012.2 |
| 20260903230031 | 92 | 322 | 0.0 | 6.0 | 0.00 | 0.00 | 0.00 | 45 | 1012.3 |
| 20260903225510 | 92 | 323 | 1.0 | 7.0 | 0.00 | 0.00 | 0.00 | 44 | 1012.3 |
| 20260903225005 | 93 | 303 | 2.0 | 7.0 | 0.00 | 0.00 | 0.00 | 43 | 1012.4 |
| 20260903224528 | 93 | 281 | 0.0 | 4.0 | 0.00 | 0.00 | 0.00 | 43 | 1012.3 |
| 20260903224011 | 92 | 283 | 0.0 | 5.0 | 0.00 | 0.00 | 0.00 | 45 | 1012.3 |
| 20260903223505 | 92 | 281 | 2.0 | 5.0 | 0.00 | 0.00 | 0.00 | 43 | 1012.3 |
| 20260903223030 | 92 | 270 | 3.0 | 5.0 | 0.00 | 0.00 | 0.00 | 43 | 1012.3 |
| 20260903222513 | 93 | 214 | 0.0 | 5.0 | 0.00 | 0.00 | 0.00 | 41 | 1012.3 |
| 20260903222011 | 94 | 216 | 2.0 | 5.0 | 0.00 | 0.00 | 0.00 | 41 | 1012.4 |
| 20260903221528 | 95 | 240 | 1.0 | 8.0 | 0.00 | 0.00 | 0.00 | 40 | 1012.4 |
| 20260903221010 | 95 | 213 | 3.0 | 8.0 | 0.00 | 0.00 | 0.00 | 39 | 1012.4 |
| 20260903220504 | 95 | 232 | 1.0 | 4.0 | 0.00 | 0.00 | 0.00 | 40 | 1012.6 |
| 20260903220030 | 93 | 292 | 0.0 | 7.0 | 0.00 | 0.00 | 0.00 | 42 | 1012.8 |
| 20260903215508 | 93 | 291 | 1.0 | 10.0 | 0.00 | 0.00 | 0.00 | 42 | 1012.8 |
| 20260903215015 | 94 | 305 | 2.0 | 10.0 | 0.00 | 0.00 | 0.00 | 41 | 1012.9 |
| 20260903214528 | 93 | 274 | 3.0 | 10.0 | 0.00 | 0.00 | 0.00 | 43 | 1013.0 |
| 20260903214016 | 94 | 236 | 5.0 | 10.0 | 0.00 | 0.00 | 0.00 | 41 | 1013.0 |
| 20260903213504 | 95 | 268 | 3.0 | 8.0 | 0.00 | 0.00 | 0.00 | 42 | 1013.0 |
| 20260903213029 | 94 | 200 | 2.0 | 7.0 | 0.00 | 0.00 | 0.00 | 42 | 1013.1 |
| 20260903212511 | 93 | 281 | 2.0 | 7.0 | 0.00 | 0.00 | 0.00 | 42 | 1013.1 |
| 20260903212004 | 94 | 239 | 2.0 | 5.0 | 0.00 | 0.00 | 0.00 | 41 | 1013.2 |
| 20260903211528 | 94 | 310 | 1.0 | 7.0 | 0.00 | 0.00 | 0.00 | 40 | 1013.2 |
| 20260903211007 | 95 | 246 | 4.0 | 7.0 | 0.00 | 0.00 | 0.00 | 40 | 1013.2 |
| 20260903210506 | 96 | 212 | 1.0 | 5.0 | 0.00 | 0.00 | 0.00 | 40 | 1013.3 |
| 20260903210030 | 95 | 257 | 0.0 | 3.0 | 0.00 | 0.00 | 0.00 | 40 | 1013.4 |
| 20260903205508 | 93 | 257 | 2.0 | 5.0 | 0.00 | 0.00 | 0.00 | 42 | 1013.4 |
| 20260903205004 | 93 | 259 | 2.0 | 5.0 | 0.00 | 0.00 | 0.00 | 43 | 1013.5 |
| 20260903204532 | 93 | 185 | 0.0 | 5.0 | 0.00 | 0.00 | 0.00 | 43 | 1013.6 |
| 20260903204011 | 93 | 193 | 1.0 | 5.0 | 0.00 | 0.00 | 0.00 | 41 | 1013.7 |
| 20260903203517 | 94 | 212 | 1.0 | 4.0 | 0.00 | 0.00 | 0.00 | 41 | 1013.8 |
| 20260903203027 | 93 | 207 | 0.0 | 5.0 | 0.00 | 0.00 | 0.00 | 42 | 1013.8 |
| 20260903202507 | 93 | 199 | 2.0 | 5.0 | 0.00 | 0.00 | 0.00 | 42 | 1013.9 |
| 20260903202003 | 94 | 252 | 2.0 | 5.0 | 0.00 | 0.00 | 0.00 | 42 | 1013.9 |
| 20260903201530 | 93 | 276 | 0.0 | 4.0 | 0.00 | 0.00 | 0.00 | 44 | 1014.2 |
| 20260903201010 | 92 | 276 | 0.0 | 5.0 | 0.00 | 0.00 | 0.00 | 45 | 1014.2 |
| 20260903200518 | 92 | 277 | 1.0 | 5.0 | 0.00 | 0.00 | 0.00 | 45 | 1014.2 |
| 20260903200034 | 91 | 300 | 2.0 | 5.0 | 0.00 | 0.00 | 0.00 | 47 | 1014.3 |
| 20260903195507 | 91 | 82 | 1.0 | 6.0 | 0.00 | 0.00 | 0.00 | 45 | 1014.4 |
| 20260903195004 | 90 | 94 | 2.0 | 6.0 | 0.00 | 0.00 | 0.00 | 45 | 1014.6 |
| 20260903194530 | 92 | 122 | 2.0 | 6.0 | 0.00 | 0.00 | 0.00 | 43 | 1014.6 |
| 20260903194022 | 93 | 256 | 0.0 | 5.0 | 0.00 | 0.00 | 0.00 | 42 | 1014.7 |
| 20260903193505 | 91 | 259 | 1.0 | 5.0 | 0.00 | 0.00 | 0.00 | 43 | 1014.8 |
| 20260903193031 | 91 | 236 | 1.0 | 5.0 | 0.00 | 0.00 | 0.00 | 46 | 1014.9 |
| 20260903192510 | 90 | 153 | 1.0 | 5.0 | 0.00 | 0.00 | 0.00 | 46 | 1015.0 |
| 20260903192004 | 91 | 200 | 1.0 | 5.0 | 0.00 | 0.00 | 0.00 | 45 | 1015.1 |
| 20260903191528 | 92 | 294 | 0.0 | 5.0 | 0.00 | 0.00 | 0.00 | 46 | 1015.2 |
| 20260903191008 | 90 | 187 | 0.0 | 7.0 | 0.00 | 0.00 | 0.00 | 47 | 1015.2 |
| 20260903190504 | 91 | 185 | 2.0 | 7.0 | 0.00 | 0.00 | 0.00 | 45 | 1015.3 |
| 20260903190027 | 91 | 149 | 0.0 | 7.0 | 0.00 | 0.00 | 0.00 | 46 | 1015.4 |
| 20260903185507 | 90 | 143 | 2.0 | 7.0 | 0.00 | 0.00 | 0.00 | 46 | 1015.5 |
| 20260903185006 | 91 | 103 | 1.0 | 5.0 | 0.00 | 0.00 | 0.00 | 47 | 1015.6 |
| 20260903184533 | 90 | 223 | 1.0 | 9.0 | 0.00 | 0.00 | 0.00 | 48 | 1015.6 |
| 20260903184009 | 89 | 176 | 2.0 | 9.0 | 0.00 | 0.00 | 0.00 | 49 | 1015.8 |
| 20260903183520 | 89 | 117 | 4.0 | 7.0 | 0.00 | 0.00 | 0.00 | 48 | 1015.8 |
| 20260903183027 | 90 | 143 | 1.0 | 5.0 | 0.00 | 0.00 | 0.00 | 48 | 1015.8 |
| 20260903182511 | 90 | 199 | 2.0 | 5.0 | 0.00 | 0.00 | 0.00 | 48 | 1015.9 |
| 20260903182021 | 90 | 162 | 1.0 | 4.0 | 0.00 | 0.00 | 0.00 | 49 | 1016.0 |
| 20260903181533 | 89 | 148 | 0.0 | 5.0 | 0.00 | 0.00 | 0.00 | 50 | 1016.1 |
| 20260903181008 | 88 | 148 | 0.0 | 6.0 | 0.00 | 0.00 | 0.00 | 50 | 1016.3 |
| 20260903180519 | 88 | 158 | 1.0 | 6.0 | 0.00 | 0.00 | 0.00 | 51 | 1016.3 |
| 20260903180032 | 88 | 174 | 1.0 | 5.0 | 0.00 | 0.00 | 0.00 | 51 | 1016.4 |
| 20260903175518 | 88 | 146 | 0.0 | 5.0 | 0.00 | 0.00 | 0.00 | 52 | 1016.5 |
| 20260903175019 | 87 | 122 | 0.0 | 5.0 | 0.00 | 0.00 | 0.00 | 52 | 1016.5 |
| 20260903174528 | 87 | 73 | 0.0 | 5.0 | 0.00 | 0.00 | 0.00 | 53 | 1016.5 |
| 20260903174018 | 87 | 77 | 1.0 | 5.0 | 0.00 | 0.00 | 0.00 | 53 | 1016.5 |
| 20260903173520 | 87 | 131 | 0.0 | 5.0 | 0.00 | 0.00 | 0.00 | 53 | 1016.6 |
| 20260903173037 | 86 | 128 | 1.0 | 6.0 | 0.00 | 0.00 | 0.00 | 55 | 1016.6 |
| 20260903172518 | 86 | 77 | 0.0 | 6.0 | 0.00 | 0.00 | 0.00 | 55 | 1016.6 |
| 20260903172017 | 86 | 94 | 1.0 | 4.0 | 0.00 | 0.00 | 0.00 | 56 | 1016.5 |
| 20260903171540 | 85 | 120 | 0.0 | 3.0 | 0.00 | 0.00 | 0.00 | 57 | 1016.6 |
| 20260903171010 | 85 | 122 | 0.0 | 3.0 | 0.00 | 0.00 | 0.00 | 58 | 1016.5 |
| 20260903170516 | 84 | 120 | 0.0 | 5.0 | 0.00 | 0.00 | 0.00 | 58 | 1016.5 |
| 20260903170037 | 84 | 105 | 0.0 | 5.0 | 0.00 | 0.00 | 0.00 | 59 | 1016.5 |
| 20260903165513 | 84 | 95 | 1.0 | 4.0 | 0.00 | 0.00 | 0.00 | 59 | 1016.5 |
| 20260903165015 | 84 | 119 | 0.0 | 4.0 | 0.00 | 0.00 | 0.00 | 59 | 1016.6 |
| 20260903164544 | 84 | 117 | 1.0 | 4.0 | 0.00 | 0.00 | 0.00 | 60 | 1016.6 |
| 20260903164019 | 84 | 115 | 2.0 | 3.0 | 0.00 | 0.00 | 0.00 | 60 | 1016.6 |
| 20260903163517 | 84 | 113 | 1.0 | 3.0 | 0.00 | 0.00 | 0.00 | 60 | 1016.6 |
| 20260903163036 | 84 | 101 | 0.0 | 5.0 | 0.00 | 0.00 | 0.00 | 60 | 1016.6 |
| 20260903162515 | 83 | 98 | 1.0 | 4.0 | 0.00 | 0.00 | 0.00 | 59 | 1016.6 |
| 20260903162021 | 83 | 107 | 1.0 | 4.0 | 0.00 | 0.00 | 0.00 | 60 | 1016.6 |
| 20260903161529 | 83 | 128 | 1.0 | 4.0 | 0.00 | 0.00 | 0.00 | 60 | 1016.6 |
| 20260903161008 | 83 | 160 | 0.0 | 4.0 | 0.00 | 0.00 | 0.00 | 60 | 1016.6 |
| 20260903160522 | 83 | 163 | 0.0 | 4.0 | 0.00 | 0.00 | 0.00 | 61 | 1016.6 |
| 20260903160043 | 83 | 96 | 0.0 | 4.0 | 0.00 | 0.00 | 0.00 | 61 | 1016.6 |
| 20260903155521 | 83 | 97 | 1.0 | 5.0 | 0.00 | 0.00 | 0.00 | 61 | 1016.6 |
| 20260903155020 | 83 | 84 | 0.0 | 5.0 | 0.00 | 0.00 | 0.00 | 61 | 1016.5 |
| 20260903154529 | 83 | 68 | 2.0 | 5.0 | 0.00 | 0.00 | 0.00 | 61 | 1016.5 |
| 20260903154020 | 83 | 75 | 0.0 | 4.0 | 0.00 | 0.00 | 0.00 | 61 | 1016.5 |
| 20260903153520 | 83 | 300 | 0.0 | 0.0 | 0.00 | 0.00 | 0.00 | 62 | 1016.4 |
| 20260903153028 | 83 | 300 | 0.0 | 0.0 | 0.00 | 0.00 | 0.00 | 63 | 1016.5 |
| 20260903152508 | 82 | 300 | 0.0 | 0.0 | 0.00 | 0.00 | 0.00 | 63 | 1016.5 |
| 20260903152016 | 82 | 300 | 0.0 | 0.0 | 0.00 | 0.00 | 0.00 | 65 | 1016.5 |
| 20260903151529 | 81 | 300 | 0.0 | 0.0 | 0.00 | 0.00 | 0.00 | 67 | 1016.5 |
| 20260903151018 | 80 | 297 | 0.0 | 4.0 | 0.00 | 0.00 | 0.00 | 68 | 1016.5 |
| 20260903150518 | 80 | 297 | 0.0 | 4.0 | 0.00 | 0.00 | 0.00 | 69 | 1016.5 |
| 20260903150057 | 79 | 296 | 1.0 | 4.0 | 0.00 | 0.00 | 0.00 | 69 | 1016.5 |
| 20260903145509 | 79 | 294 | 0.0 | 5.0 | 0.00 | 0.00 | 0.00 | 70 | 1016.5 |
| 20260903145005 | 79 | 293 | 1.0 | 6.0 | 0.00 | 0.00 | 0.00 | 71 | 1016.6 |
| 20260903144538 | 78 | 360 | 3.0 | 7.0 | 0.00 | 0.00 | 0.00 | 70 | 1016.6 |
| 20260903144024 | 78 | 334 | 3.0 | 7.0 | 0.00 | 0.00 | 0.00 | 71 | 1016.6 |
| 20260903143507 | 78 | 312 | 2.0 | 6.0 | 0.00 | 0.00 | 0.00 | 71 | 1016.6 |
| 20260903143030 | 78 | 291 | 2.0 | 6.0 | 0.00 | 0.00 | 0.00 | 71 | 1016.6 |
| 20260903142522 | 78 | 290 | 2.0 | 5.0 | 0.00 | 0.00 | 0.00 | 71 | 1016.6 |
| 20260903142016 | 79 | 360 | 2.0 | 5.0 | 0.00 | 0.00 | 0.00 | 70 | 1016.6 |
| 20260903141536 | 79 | 269 | 1.0 | 4.0 | 0.00 | 0.00 | 0.00 | 70 | 1016.6 |
| 20260903141010 | 79 | 269 | 1.0 | 6.0 | 0.00 | 0.00 | 0.00 | 69 | 1016.7 |
| 20260903140518 | 79 | 267 | 2.0 | 8.0 | 0.00 | 0.00 | 0.00 | 68 | 1016.6 |
| 20260903140038 | 79 | 275 | 2.0 | 8.0 | 0.00 | 0.00 | 0.00 | 67 | 1016.6 |